User: anonymous   Login
Location: Cussy
(47.0410°N, 4.6412°E)
Time: 08:47:00
(UTC+00:00)
Language:

deb Agena D - Orbit

View from above orbital plane
View from above orbital plane
View from above satellite
View from above satellite

Ground track
Ground track

The orbit data is extracted from the following two-line orbital elements,

1 04768U 70025DN  21166.69603421  .00000090  00000-0  15742-3 0  9997
2 04768 100.1035  83.0554 0030698 326.5810  65.1369 13.69995037547483
Epoch (UTC): 15 June 2021 16:42:17
Eccentricity: 0.0030698
inclination: 100.1035°
perigee height: 977 km
apogee height: 1022 km
right ascension of ascending node: 83.0554°
argument of perigee: 326.5810°
revolutions per day: 13.69995037
mean anomaly at epoch: 65.1369°
orbit number at epoch: 54748

The dashed part of the orbit path shows where the satellite is in the earth's shadow,  

DLR